Palm Springs, CA

2:46 AM PDT on July 23, 2017 (GMT -0700)
Palm Springs International

Weather History for KPSP - December, 2013

Change the Weather History Date:

Friday, December 20, 2013

  Actual Average Record
Temperature  
Mean Temperature 57 °F 55 °F  
Max Temperature 69 °F 66 °F 82 °F (1972)
Min Temperature 45 °F 44 °F 28 °F (1992)
Degree Days  
Heating Degree Days 8 10  
Month to date heating degree days 174 183  
Since 1 July heating degree days 235 279  
Cooling Degree Days 0 0  
Month to date cooling degree days 1 0  
Year to date cooling degree days 4507 4137  
Growing Degree Days 7 (Base 50)    
Moisture  
Dew Point 35 °F    
Average Humidity 49    
Maximum Humidity 71    
Minimum Humidity 27    
Precipitation  
Precipitation 0.00 in 0.03 in 1.00 in (1909)
Month to date precipitation T 0.46  
Year to date precipitation 2.23 5.32  
Since 1 July precipitation 1.26  
Snow  
Snow 0.00 in - - ()
Month to date snowfall 0.0  
Year to date snowfall 0.0  
Snow Depth 0.00 in    
Sea Level Pressure  
Sea Level Pressure 29.81 in    
Wind  
Wind Speed 5 mph (NW)    
Max Wind Speed 16 mph    
Max Gust Speed 18 mph    
Visibility 10 miles    
Events      
T = Trace of Precipitation, MM = Missing Value Source: NWS Daily Summary

Daily Weather History Graph

Daily Weather History Graph

Search for Another Location

Airport or City:

Trip Planner

Search our weather history database for the weather conditions in past years. The results will help you decide how hot, cold, wet, or windy it might be!

Date:

Astronomy

Dec. 20, 2013 Rise Set
Actual Time 6:46 AM PST 4:40 PM PST
Civil Twilight 6:19 AM PST 5:08 PM PST
Nautical Twilight 5:47 AM PST 5:39 PM PST
Astronomical Twilight 5:17 AM PST 6:10 PM PST
Moon 7:57 PM PST (12/20) 8:50 AM PST (12/20)
Length of Visible Light 10h 49m
Length of Day
9h 54m
Waning Gibbous, 90% of the Moon is Illuminated
Dec 20
Waning Gibbous
Dec 25
Last Quarter
Jan 1
New
Jan 7
First Quarter
Jan 15
Full

Hourly Weather History & Observations

Time (PST) Temp. Dew Point Humidity Pressure Visibility Wind Dir Wind Speed Gust Speed Precip Events Conditions
12:53 AM 55.0 °F 37.9 °F 53% 29.74 in 10.0 mi WNW 5.8 mph - N/A   Mostly Cloudy
1:53 AM 53.1 °F 39.0 °F 59% 29.74 in 10.0 mi Variable 4.6 mph - N/A   Partly Cloudy
2:53 AM 52.0 °F 37.9 °F 59% 29.74 in 10.0 mi NW 5.8 mph - N/A   Clear
3:53 AM 53.1 °F 37.0 °F 55% 29.74 in 10.0 mi NW 9.2 mph - N/A   Clear
4:53 AM 51.1 °F 37.9 °F 61% 29.75 in 10.0 mi NW 8.1 mph - N/A   Clear
5:53 AM 48.0 °F 37.9 °F 68% 29.77 in 10.0 mi Calm Calm - N/A   Clear
6:53 AM 46.9 °F 37.9 °F 71% 29.81 in 10.0 mi Calm Calm - N/A   Clear
7:53 AM 50.0 °F 37.9 °F 63% 29.81 in 10.0 mi NNW 5.8 mph - N/A   Scattered Clouds
8:53 AM 55.9 °F 37.0 °F 49% 29.83 in 10.0 mi WNW 4.6 mph - N/A   Clear
9:53 AM 59.0 °F 37.0 °F 44% 29.83 in 10.0 mi Calm Calm - N/A   Scattered Clouds
10:53 AM 64.0 °F 34.0 °F 33% 29.83 in 10.0 mi Calm Calm - N/A   Scattered Clouds
11:53 AM - - N/A% 29.80 in 9.0 mi Calm Calm - N/A   Clear
12:53 PM 66.0 °F 32.0 °F 28% 29.79 in 10.0 mi WSW 3.5 mph - N/A   Clear
1:53 PM 68.0 °F 33.1 °F 27% 29.79 in 10.0 mi WNW 6.9 mph - N/A   Clear
2:53 PM 66.9 °F 36.0 °F 32% 29.79 in 10.0 mi NW 12.7 mph - N/A   Partly Cloudy
3:53 PM 64.9 °F 36.0 °F 34% 29.80 in 10.0 mi NW 11.5 mph - N/A   Clear
4:53 PM 63.0 °F 33.1 °F 33% 29.81 in 10.0 mi NNW 15.0 mph - N/A   Clear
5:53 PM 62.1 °F 33.1 °F 34% 29.82 in 10.0 mi NW 10.4 mph - N/A   Clear
6:53 PM 61.0 °F 30.9 °F 32% 29.84 in 10.0 mi WNW 10.4 mph - N/A   Clear
7:53 PM 57.9 °F 34.0 °F 41% 29.86 in 10.0 mi West 3.5 mph - N/A   Clear
8:53 PM 57.9 °F 34.0 °F 41% 29.87 in 10.0 mi Calm Calm - N/A   Clear
9:53 PM 52.0 °F 34.0 °F 50% 29.88 in 10.0 mi Calm Calm - N/A   Clear
10:53 PM 53.1 °F 34.0 °F 48% 29.89 in 10.0 mi Calm Calm - N/A   Clear
11:53 PM 48.0 °F 33.1 °F 56% 29.87 in 10.0 mi Calm Calm - N/A   Clear